START_TIME,STEP,MOV.,M6,t_acc.,M7,t_acc.,M19,t_acc.,H36,t_acc.
1979-07-04 03:00:27.930 ,1,0,0.,12.0,0.,12.0,0.,12.0,0.,12.0
1979-07-04 03:00:39.930 ,1,0,0.,12.0,0.,12.0,0.,12.0,0.,12.0
1979-07-04 03:00:51.930 ,2,1,0.,12.0,0.,12.0,0.,12.0,0.,12.0
1979-07-04 03:01:03.930 ,2,1,0.,12.0,0.,12.0,0.,12.0,0.,12.0
1979-07-04 03:01:15.930 ,2,0,0.,12.0,0.,12.0,0.,12.0,0.,12.0
1979-07-04 03:01:27.930 ,2,0,0.,12.0,0.,12.0,0.,12.0,0.,12.0
1979-07-04 03:01:39.930 ,3,1,0.,12.0,0.,12.0,0.,12.0,0.,12.0
1979-07-04 03:01:51.930 ,3,1,0.,12.0,0.,12.0,0.,12.0,0.,12.0
1979-07-04 03:02:03.930 ,3,0,0.,12.0,0.,12.0,0.,12.0,0.,12.0
1979-07-04 03:02:15.930 ,3,0,0.,12.0,0.,12.0,0.,12.0,0.,12.0
1979-07-04 03:02:27.930 ,4,1,0.,12.0,0.,12.0,0.,12.0,0.,12.0
1979-07-04 03:02:39.930 ,4,1,0.,12.0,0.,12.0,0.,12.0,0.,12.0
1979-07-04 03:02:51.930 ,4,0,0.,12.0,0.,12.0,0.,12.0,0.,12.0
1979-07-04 03:03:03.930 ,4,0,0.,12.0,0.,12.0,0.,12.0,0.,12.0
1979-07-04 03:03:15.930 ,5,1,0.,12.0,0.,12.0,0.,12.0,0.,12.0
1979-07-04 03:03:27.930 ,5,1,0.,12.0,0.,12.0,0.,12.0,0.,12.0
1979-07-04 03:03:39.930 ,5,0,0.,12.0,0.,12.0,0.,12.0,0.,12.0
1979-07-04 03:03:51.930 ,5,0,0.,12.0,0.,12.0,0.,12.0,0.,12.0
1979-07-04 03:04:03.930 ,6,1,0.,12.0,0.,12.0,0.,12.0,0.,12.0
1979-07-04 03:04:15.930 ,6,1,0.,12.0,0.,12.0,0.,12.0,0.,12.0
1979-07-04 03:04:27.930 ,6,0,0.,12.0,0.,12.0,0.,12.0,0.,12.0
1979-07-04 03:04:39.930 ,6,0,0.,12.0,0.,12.0,0.,12.0,0.,12.0
1979-07-04 03:04:51.930 ,7,1,0.,12.0,0.,12.0,0.,12.0,0.,12.0
1979-07-04 03:05:03.930 ,7,1,0.,12.0,0.,12.0,0.,12.0,0.,12.0
1979-07-04 03:05:15.930 ,7,0,0.,12.0,0.,12.0,0.,12.0,0.,12.0
1979-07-04 03:05:27.930 ,7,0,0.,12.0,0.,12.0,0.,12.0,0.,12.0
1979-07-04 03:06:27.930 ,6,1,0.,12.0,0.,12.0,0.,12.0,0.,12.0
1979-07-04 03:06:39.930 ,6,1,0.,12.0,0.,12.0,0.,12.0,0.,12.0
1979-07-04 03:06:51.930 ,6,0,0.,12.0,0.,12.0,0.,12.0,0.,12.0
1979-07-04 03:07:03.930 ,6,0,0.,12.0,0.,12.0,0.,12.0,0.,12.0
1979-07-04 03:07:15.930 ,5,1,0.,12.0,0.,12.0,0.,12.0,0.,12.0
1979-07-04 03:07:27.930 ,5,1,0.,12.0,0.,12.0,0.,12.0,0.,12.0
1979-07-04 03:07:39.930 ,5,0,0.,12.0,0.,12.0,0.,12.0,0.,12.0
1979-07-04 03:07:51.930 ,5,0,0.,12.0,0.,12.0,0.,12.0,0.,12.0
1979-07-04 03:08:03.930 ,4,1,0.,12.0,0.,12.0,0.,12.0,0.,12.0
1979-07-04 03:08:15.930 ,4,1,0.,12.0,0.,12.0,0.,12.0,0.,12.0
1979-07-04 03:08:27.930 ,4,0,0.,12.0,0.,12.0,0.,12.0,0.,12.0
1979-07-04 03:08:39.930 ,4,0,0.,12.0,0.,12.0,0.,12.0,0.,12.0
1979-07-04 03:08:51.920 ,3,1,0.,12.0,0.,12.0,0.,12.0,0.,12.0
1979-07-04 03:09:03.930 ,3,1,0.,12.0,0.,12.0,0.,12.0,0.,12.0
1979-07-04 03:09:15.920 ,3,0,0.,12.0,0.,12.0,0.,12.0,0.,12.0
1979-07-04 03:09:27.930 ,3,0,0.,12.0,0.,12.0,0.,12.0,0.,12.0
1979-07-04 03:09:39.920 ,2,1,0.,12.0,0.,12.0,0.,12.0,0.,12.0
1979-07-04 03:09:51.930 ,2,1,0.,12.0,0.,12.0,0.,12.0,0.,12.0
1979-07-04 03:10:03.920 ,2,0,0.,12.0,0.,12.0,0.,12.0,0.,12.0
1979-07-04 03:10:15.930 ,2,0,0.,12.0,0.,12.0,0.,12.0,0.,12.0
1979-07-04 03:10:27.920 ,1,1,0.,12.0,0.,12.0,0.,12.0,0.,12.0
1979-07-04 03:10:39.930 ,1,1,0.,12.0,0.,12.0,0.,12.0,0.,12.0
1979-07-04 03:10:51.920 ,1,0,0.,12.0,0.,12.0,0.,12.0,0.,12.0
1979-07-04 03:11:03.930 ,1,0,0.,12.0,0.,12.0,0.,12.0,0.,12.0
1979-07-04 03:11:15.920 ,0,1,0.,12.0,0.,12.0,0.,12.0,0.,12.0
1979-07-04 03:11:27.930 ,0,1,0.,12.0,0.,12.0,0.,12.0,0.,12.0
1979-07-04 03:11:39.920 ,0,0,0.,12.0,0.,12.0,0.,12.0,0.,12.0
1979-07-04 03:11:51.930 ,0,0,0.,12.0,0.,12.0,0.,12.0,0.,12.0
1979-07-04 03:12:03.920 ,0,1,0.,12.0,0.,12.0,0.,12.0,0.,12.0
1979-07-04 03:12:15.930 ,0,1,0.,12.0,0.,12.0,0.,12.0,0.,12.0
1979-07-04 03:12:27.920 ,0,0,0.,12.0,0.,12.0,0.,12.0,0.,12.0
1979-07-04 03:12:39.930 ,0,0,0.,12.0,0.,12.0,0.,12.0,0.,12.0
1979-07-04 03:12:51.920 ,1,1,0.,12.0,0.,12.0,0.,12.0,0.,12.0
1979-07-04 03:13:03.930 ,1,1,0.,12.0,0.,12.0,0.,12.0,0.,12.0
1979-07-04 03:13:15.920 ,1,0,0.,12.0,0.,12.0,0.,12.0,0.,12.0
1979-07-04 03:13:27.930 ,1,0,0.,12.0,0.,12.0,0.,12.0,0.,12.0
1979-07-04 03:13:39.920 ,2,1,0.,12.0,0.,12.0,0.,12.0,0.,12.0
1979-07-04 03:13:51.930 ,2,1,0.,12.0,0.,12.0,0.,12.0,0.,12.0
1979-07-04 03:14:03.920 ,2,0,0.,12.0,0.,12.0,0.,12.0,0.,12.0
1979-07-04 03:14:15.930 ,2,0,0.,12.0,0.,12.0,0.,12.0,0.,12.0
1979-07-04 03:14:27.920 ,3,1,0.,12.0,0.,12.0,0.,12.0,0.,12.0
1979-07-04 03:14:39.930 ,3,1,0.,12.0,0.,12.0,0.,12.0,0.,12.0
1979-07-04 03:14:51.920 ,3,0,0.,12.0,0.,12.0,0.,12.0,0.,12.0
1979-07-04 03:15:03.930 ,3,0,0.,12.0,0.,12.0,0.,12.0,0.,12.0
1979-07-04 03:15:15.920 ,4,1,0.,12.0,0.,12.0,0.,12.0,0.,12.0
1979-07-04 03:15:27.930 ,4,1,0.,12.0,0.,12.0,0.,12.0,0.,12.0
1979-07-04 03:15:39.920 ,4,0,0.,12.0,0.,12.0,0.,12.0,0.,12.0
1979-07-04 03:15:51.930 ,4,0,0.,12.0,0.,12.0,0.,12.0,0.,12.0
1979-07-04 03:16:03.920 ,5,1,0.,12.0,0.,12.0,0.,12.0,0.,12.0
1979-07-04 03:16:15.930 ,5,1,0.,12.0,0.,12.0,0.,12.0,0.,12.0
1979-07-04 03:16:27.920 ,5,0,0.,12.0,0.,12.0,0.,12.0,0.,12.0
1979-07-04 03:16:39.930 ,5,0,0.,12.0,0.,12.0,0.,12.0,0.,12.0
1979-07-04 03:16:51.920 ,6,1,0.,12.0,0.,12.0,0.,12.0,0.,12.0
1979-07-04 03:17:03.930 ,6,1,0.,12.0,0.,12.0,0.,12.0,0.,12.0
1979-07-04 03:17:15.920 ,6,0,0.,12.0,0.,12.0,0.,12.0,0.,12.0
1979-07-04 03:17:27.920 ,6,0,0.,12.0,0.,12.0,0.,12.0,0.,12.0
1979-07-04 03:17:39.920 ,7,1,0.,12.0,0.,12.0,0.,12.0,0.,12.0
1979-07-04 03:17:51.920 ,7,1,0.,12.0,0.,12.0,0.,12.0,0.,12.0
1979-07-04 03:18:03.920 ,7,0,0.,12.0,0.,12.0,0.,12.0,0.,12.0
1979-07-04 03:18:15.920 ,7,0,0.,12.0,0.,12.0,0.,12.0,0.,12.0
1979-07-04 03:18:27.920 ,7,1,0.,12.0,0.,12.0,0.,12.0,0.,12.0
1979-07-04 03:18:39.920 ,7,1,0.,12.0,0.,12.0,0.,12.0,0.,12.0
1979-07-04 03:18:51.920 ,7,0,0.,12.0,0.,12.0,0.,12.0,0.,12.0
1979-07-04 03:19:03.920 ,7,0,0.,12.0,0.,12.0,0.,12.0,0.,12.0
1979-07-04 03:19:15.920 ,6,1,0.,12.0,0.,12.0,0.,12.0,0.,12.0
1979-07-04 03:19:27.920 ,6,1,0.,12.0,0.,12.0,0.,12.0,0.,12.0
1979-07-04 03:19:39.920 ,6,0,0.,12.0,0.,12.0,0.,12.0,0.,12.0
1979-07-04 03:19:51.920 ,6,0,0.,12.0,0.,12.0,0.,12.0,0.,12.0
1979-07-04 03:20:03.920 ,5,1,0.,12.0,0.,12.0,0.,12.0,0.,12.0
1979-07-04 03:20:15.920 ,5,1,0.,12.0,0.,12.0,0.,12.0,0.,12.0
1979-07-04 03:20:27.920 ,5,0,0.,12.0,0.,12.0,0.,12.0,0.,12.0
1979-07-04 03:20:39.920 ,5,0,0.,12.0,0.,12.0,0.,12.0,0.,12.0
1979-07-04 03:20:51.920 ,4,1,0.,12.0,0.,12.0,0.,12.0,0.,12.0
1979-07-04 03:21:03.920 ,4,1,0.,12.0,0.,12.0,0.,12.0,0.,12.0
1979-07-04 03:21:15.920 ,4,0,0.,12.0,0.,12.0,0.,12.0,0.,12.0
1979-07-04 03:21:27.920 ,4,0,0.,12.0,0.,12.0,0.,12.0,0.,12.0
1979-07-04 03:21:39.920 ,3,1,0.,12.0,0.,12.0,0.,12.0,0.,12.0
1979-07-04 03:21:51.920 ,3,1,0.,12.0,0.,12.0,0.,12.0,0.,12.0
1979-07-04 03:22:03.920 ,3,0,0.,12.0,0.,12.0,0.,12.0,0.,12.0
1979-07-04 03:22:15.920 ,3,0,0.,12.0,0.,12.0,0.,12.0,0.,12.0
1979-07-04 03:22:27.920 ,2,1,0.,12.0,0.,12.0,0.,12.0,0.,12.0
1979-07-04 03:22:39.920 ,2,1,0.,12.0,0.,12.0,0.,12.0,0.,12.0
1979-07-04 03:22:51.920 ,2,0,0.,12.0,0.,12.0,0.,12.0,0.,12.0
1979-07-04 03:23:03.920 ,2,0,0.,12.0,0.,12.0,0.,12.0,0.,12.0
1979-07-04 03:23:15.920 ,1,1,0.,12.0,0.,12.0,0.,12.0,0.,12.0
1979-07-04 03:23:27.920 ,1,1,0.,12.0,0.,12.0,0.,12.0,0.,12.0
1979-07-04 03:23:39.920 ,1,0,0.,12.0,0.,12.0,0.,12.0,0.,12.0
1979-07-04 03:23:51.920 ,1,0,0.,12.0,0.,12.0,0.,12.0,0.,12.0
1979-07-04 03:24:03.920 ,0,1,0.,12.0,0.,12.0,0.,12.0,0.,12.0
1979-07-04 03:24:15.920 ,0,1,0.,12.0,0.,12.0,0.,12.0,0.,12.0
1979-07-04 03:24:27.920 ,0,0,0.,12.0,0.,12.0,0.,12.0,0.,12.0
1979-07-04 03:24:39.920 ,0,0,0.,12.0,0.,12.0,0.,12.0,0.,12.0
1979-07-04 03:24:51.920 ,0,1,0.,12.0,0.,12.0,0.,12.0,0.,12.0
1979-07-04 03:25:03.920 ,0,1,0.,12.0,0.,12.0,0.,12.0,0.,12.0
1979-07-04 03:25:15.920 ,0,0,0.,12.0,0.,12.0,0.,12.0,0.,12.0
1979-07-04 03:25:27.920 ,0,0,0.,12.0,0.,12.0,0.,12.0,0.,12.0
1979-07-04 03:25:39.920 ,1,1,0.,12.0,0.,12.0,0.,12.0,0.,12.0
1979-07-04 03:25:51.920 ,1,1,0.,12.0,0.,12.0,0.,12.0,0.,12.0
1979-07-04 03:26:03.920 ,1,0,0.,12.0,0.,12.0,0.,12.0,0.,12.0
1979-07-04 03:26:15.920 ,1,0,0.,12.0,0.,12.0,0.,12.0,0.,12.0
1979-07-04 03:26:27.920 ,2,1,0.,12.0,0.,12.0,0.,12.0,0.,12.0
1979-07-04 03:26:39.920 ,2,1,0.,12.0,0.,12.0,0.,12.0,0.,12.0
1979-07-04 03:26:51.920 ,2,0,0.,12.0,0.,12.0,0.,12.0,0.,12.0
1979-07-04 03:27:03.920 ,2,0,0.,12.0,0.,12.0,0.,12.0,0.,12.0
1979-07-04 03:27:15.920 ,3,1,0.,12.0,0.,12.0,0.,12.0,0.,12.0
1979-07-04 03:27:27.920 ,3,1,0.,12.0,0.,12.0,0.,12.0,0.,12.0
1979-07-04 03:27:39.920 ,3,0,0.,12.0,0.,12.0,0.,12.0,0.,12.0
1979-07-04 03:27:51.920 ,3,0,0.,12.0,0.,12.0,0.,12.0,0.,12.0
1979-07-04 03:28:03.920 ,4,1,0.,12.0,0.,12.0,0.,12.0,0.,12.0
1979-07-04 03:28:15.920 ,4,1,0.,12.0,0.,12.0,0.,12.0,0.,12.0
1979-07-04 03:28:27.920 ,4,0,0.,12.0,0.,12.0,0.,12.0,0.,12.0
1979-07-04 03:28:39.920 ,4,0,0.,12.0,0.,12.0,0.,12.0,0.,12.0
1979-07-04 03:28:51.920 ,5,1,0.,12.0,0.,12.0,0.,12.0,0.,12.0
1979-07-04 03:29:03.920 ,5,1,0.,12.0,0.,12.0,0.,12.0,0.,12.0
1979-07-04 03:29:15.920 ,5,0,0.,12.0,0.,12.0,0.,12.0,0.,12.0
1979-07-04 03:29:27.920 ,5,0,0.,12.0,0.,12.0,0.,12.0,0.,12.0
1979-07-04 03:29:39.920 ,6,1,0.,12.0,0.,12.0,0.,12.0,0.,12.0
1979-07-04 03:29:51.920 ,6,1,0.,12.0,0.,12.0,0.,12.0,0.,12.0
1979-07-04 03:30:03.920 ,6,0,0.,12.0,0.,12.0,0.,12.0,0.,12.0
1979-07-04 03:30:15.920 ,6,0,0.,12.0,0.,12.0,0.,12.0,0.,12.0
1979-07-04 03:30:27.920 ,7,0,0.,12.0,0.,12.0,0.,12.0,0.,12.0
1979-07-04 03:30:39.920 ,7,0,0.,12.0,0.,12.0,0.,12.0,0.,12.0
1979-07-04 03:30:51.920 ,7,0,0.,12.0,0.,12.0,0.,12.0,0.,12.0
1979-07-04 03:31:03.920 ,7,0,0.,12.0,0.,12.0,0.,12.0,0.,12.0
1979-07-04 03:31:15.920 ,4,1,0.,12.0,0.,12.0,0.,12.0,0.,12.0
1979-07-04 03:31:27.920 ,4,1,0.,12.0,0.,12.0,0.,12.0,0.,12.0
1979-07-04 03:31:39.920 ,0,1,0.,12.0,0.,12.0,0.,12.0,0.,12.0
1979-07-04 03:31:51.920 ,0,1,0.,12.0,0.,12.0,0.,12.0,0.,12.0
1979-07-04 03:32:03.920 ,3,1,0.,12.0,0.,12.0,0.,12.0,0.,12.0
1979-07-04 03:32:15.920 ,3,1,0.,12.0,0.,12.0,0.,12.0,0.,12.0
1979-07-04 03:32:27.920 ,7,1,0.,12.0,0.,12.0,0.,12.0,0.,12.0
1979-07-04 03:32:39.920 ,7,1,0.,12.0,0.,12.0,0.,12.0,0.,12.0
1979-07-04 03:32:51.920 ,4,1,0.,12.0,0.,12.0,0.,12.0,0.,12.0
1979-07-04 03:33:03.920 ,4,1,0.,12.0,0.,12.0,0.,12.0,0.,12.0
1979-07-04 03:33:15.920 ,0,1,0.,12.0,0.,12.0,0.,12.0,0.,12.0
1979-07-04 03:33:27.920 ,0,1,0.,12.0,0.,12.0,0.,12.0,0.,12.0
1979-07-04 03:33:39.920 ,3,1,0.,12.0,0.,12.0,0.,12.0,0.,12.0
1979-07-04 03:33:51.920 ,3,1,0.,12.0,0.,12.0,0.,12.0,0.,12.0
1979-07-04 03:34:03.920 ,7,1,0.,12.0,0.,12.0,0.,12.0,0.,12.0
1979-07-04 03:34:15.920 ,7,1,0.,12.0,0.,12.0,0.,12.0,0.,12.0
1979-07-04 03:34:27.920 ,4,1,0.,12.0,0.,12.0,0.,12.0,0.,12.0
1979-07-04 03:34:39.920 ,4,1,0.,12.0,0.,12.0,0.,12.0,0.,12.0
1979-07-04 03:34:51.920 ,0,1,0.,12.0,0.,12.0,0.,12.0,0.,12.0
1979-07-04 03:35:03.920 ,0,1,0.,12.0,0.,12.0,0.,12.0,0.,12.0
1979-07-04 03:35:15.920 ,3,1,0.,12.0,0.,12.0,0.,12.0,0.,12.0
1979-07-04 03:35:27.920 ,3,1,0.,12.0,0.,12.0,0.,12.0,0.,12.0
1979-07-04 03:35:39.920 ,7,1,0.,12.0,0.,12.0,0.,12.0,0.,12.0
1979-07-04 03:35:51.920 ,7,1,0.,12.0,0.,12.0,0.,12.0,0.,12.0
1979-07-04 03:36:03.920 ,4,1,0.,12.0,0.,12.0,0.,12.0,0.,12.0
1979-07-04 03:36:15.920 ,4,1,0.,12.0,0.,12.0,0.,12.0,0.,12.0
1979-07-04 03:36:27.920 ,0,1,0.,12.0,0.,12.0,0.,12.0,0.,12.0
1979-07-04 03:36:39.920 ,0,1,0.,12.0,0.,12.0,0.,12.0,0.,12.0
1979-07-04 03:36:51.920 ,3,1,0.,12.0,0.,12.0,0.,12.0,0.,12.0
1979-07-04 03:37:03.920 ,3,1,0.,12.0,0.,12.0,0.,12.0,0.,12.0
1979-07-04 03:37:15.920 ,7,1,0.,12.0,0.,12.0,0.,12.0,0.,12.0
1979-07-04 03:37:27.920 ,7,1,0.,12.0,0.,12.0,0.,12.0,0.,12.0
1979-07-04 03:37:39.920 ,4,1,0.,12.0,0.,12.0,0.,12.0,0.,12.0
1979-07-04 03:37:51.920 ,4,1,0.,12.0,0.,12.0,0.,12.0,0.,12.0
1979-07-04 03:38:03.920 ,0,1,0.,12.0,0.,12.0,0.,12.0,0.,12.0
1979-07-04 03:38:15.920 ,0,1,0.,12.0,0.,12.0,0.,12.0,0.,12.0
1979-07-04 03:38:27.920 ,3,1,0.,12.0,0.,12.0,0.,12.0,0.,12.0
1979-07-04 03:38:39.920 ,3,1,0.,12.0,0.,12.0,0.,12.0,0.,12.0
1979-07-04 03:38:51.920 ,7,1,0.,12.0,0.,12.0,0.,12.0,0.,12.0
1979-07-04 03:39:03.920 ,7,1,0.,12.0,0.,12.0,0.,12.0,0.,12.0
1979-07-04 03:39:15.920 ,4,1,0.,12.0,0.,12.0,0.,12.0,0.,12.0
1979-07-04 03:39:27.920 ,4,1,0.,12.0,0.,12.0,0.,12.0,0.,12.0
1979-07-04 03:39:39.920 ,0,1,0.,12.0,0.,12.0,0.,12.0,0.,12.0
1979-07-04 03:39:51.920 ,0,1,0.,12.0,0.,12.0,0.,12.0,0.,12.0
1979-07-04 03:40:03.920 ,3,1,0.,12.0,0.,12.0,0.,12.0,0.,12.0
1979-07-04 03:40:15.920 ,3,1,0.,12.0,0.,12.0,0.,12.0,0.,12.0
1979-07-04 03:40:27.920 ,7,1,0.,12.0,0.,12.0,0.,12.0,0.,12.0
1979-07-04 03:40:39.920 ,7,1,0.,12.0,0.,12.0,0.,12.0,0.,12.0
1979-07-04 03:40:51.920 ,4,1,0.,12.0,0.,12.0,0.,12.0,0.,12.0
1979-07-04 03:41:03.920 ,4,1,0.,12.0,0.,12.0,0.,12.0,0.,12.0
1979-07-04 03:41:15.920 ,0,1,0.,12.0,0.,12.0,0.,12.0,0.,12.0
1979-07-04 03:41:27.920 ,0,1,0.,12.0,0.,12.0,0.,12.0,0.,12.0
1979-07-04 03:41:39.920 ,0,0,0.,12.0,0.,12.0,0.,12.0,0.,12.0
1979-07-04 03:41:51.920 ,0,0,0.,12.0,0.,12.0,0.,12.0,0.,12.0
1979-07-04 03:42:03.920 ,0,0,0.,12.0,0.,12.0,0.,12.0,0.,12.0
1979-07-04 03:42:15.920 ,0,0,0.,12.0,0.,12.0,0.,12.0,0.,12.0
1979-07-04 03:42:27.920 ,5,1,0.,12.0,0.,12.0,0.,12.0,0.,12.0
1979-07-04 03:42:39.920 ,5,1,0.,12.0,0.,12.0,0.,12.0,0.,12.0
1979-07-04 03:42:51.920 ,5,0,0.,12.0,0.,12.0,0.,12.0,0.,12.0
1979-07-04 03:43:03.920 ,5,0,0.,12.0,0.,12.0,0.,12.0,0.,12.0
1979-07-04 03:43:15.920 ,4,1,0.,12.0,0.,12.0,0.,12.0,0.,12.0
1979-07-04 03:43:27.920 ,4,1,0.,12.0,0.,12.0,0.,12.0,0.,12.0
1979-07-04 03:43:39.920 ,4,0,0.,12.0,0.,12.0,0.,12.0,0.,12.0
1979-07-04 03:43:51.920 ,4,0,0.,12.0,0.,12.0,0.,12.0,0.,12.0
1979-07-04 03:44:03.920 ,3,1,0.,12.0,0.,12.0,0.,12.0,0.,12.0
1979-07-04 03:44:15.920 ,3,1,0.,12.0,0.,12.0,0.,12.0,0.,12.0
1979-07-04 03:44:27.920 ,3,0,0.,12.0,0.,12.0,0.,12.0,0.,12.0
1979-07-04 03:44:39.920 ,3,0,0.,12.0,0.,12.0,0.,12.0,0.,12.0
1979-07-04 03:44:51.920 ,2,1,0.,12.0,0.,12.0,0.,12.0,0.,12.0
1979-07-04 03:45:03.920 ,2,1,0.,12.0,0.,12.0,0.,12.0,0.,12.0
1979-07-04 03:45:15.920 ,2,0,0.,12.0,0.,12.0,0.,12.0,0.,12.0
1979-07-04 03:45:27.920 ,2,0,0.,12.0,0.,12.0,0.,12.0,0.,12.0
1979-07-04 03:45:39.920 ,1,1,0.,12.0,0.,12.0,0.,12.0,0.,12.0
1979-07-04 03:45:51.920 ,1,1,0.,12.0,0.,12.0,0.,12.0,0.,12.0
1979-07-04 03:46:03.920 ,1,0,0.,12.0,0.,12.0,0.,12.0,0.,12.0
1979-07-04 03:46:15.920 ,1,0,0.,12.0,0.,12.0,0.,12.0,0.,12.0
1979-07-04 03:46:27.920 ,0,1,0.,12.0,0.,12.0,0.,12.0,0.,12.0
1979-07-04 03:46:39.920 ,0,1,0.,12.0,0.,12.0,0.,12.0,0.,12.0
1979-07-04 03:46:51.920 ,0,0,0.,12.0,0.,12.0,0.,12.0,0.,12.0
1979-07-04 03:47:03.920 ,0,0,0.,12.0,0.,12.0,0.,12.0,0.,12.0
1979-07-04 03:47:15.920 ,0,1,0.,12.0,0.,12.0,0.,12.0,0.,12.0
1979-07-04 03:47:27.920 ,0,1,0.,12.0,0.,12.0,0.,12.0,0.,12.0
1979-07-04 03:47:39.920 ,0,0,0.,12.0,0.,12.0,0.,12.0,0.,12.0
1979-07-04 03:47:51.920 ,0,0,0.,12.0,0.,12.0,0.,12.0,0.,12.0
1979-07-04 03:48:03.920 ,1,1,0.,12.0,0.,12.0,0.,12.0,0.,12.0
1979-07-04 03:48:15.920 ,1,1,0.,12.0,0.,12.0,0.,12.0,0.,12.0
1979-07-04 03:48:27.920 ,1,0,0.,12.0,0.,12.0,0.,12.0,0.,12.0
1979-07-04 03:48:39.920 ,1,0,0.,12.0,0.,12.0,0.,12.0,0.,12.0
1979-07-04 03:48:51.920 ,2,1,0.,12.0,0.,12.0,0.,12.0,0.,12.0
1979-07-04 03:49:03.920 ,2,1,0.,12.0,0.,12.0,0.,12.0,0.,12.0
1979-07-04 03:49:15.920 ,2,0,0.,12.0,0.,12.0,0.,12.0,0.,12.0
1979-07-04 03:49:27.920 ,2,0,0.,12.0,0.,12.0,0.,12.0,0.,12.0
1979-07-04 03:49:39.920 ,3,1,0.,12.0,0.,12.0,0.,12.0,0.,12.0
1979-07-04 03:49:51.920 ,3,1,0.,12.0,0.,12.0,0.,12.0,0.,12.0
1979-07-04 03:50:03.920 ,3,0,0.,12.0,0.,12.0,0.,12.0,0.,12.0
1979-07-04 03:50:15.920 ,3,0,0.,12.0,0.,12.0,0.,12.0,0.,12.0
1979-07-04 03:50:27.920 ,4,1,0.,12.0,0.,12.0,0.,12.0,0.,12.0
1979-07-04 03:50:39.920 ,4,1,0.,12.0,0.,12.0,0.,12.0,0.,12.0
1979-07-04 03:50:51.920 ,4,0,0.,12.0,0.,12.0,0.,12.0,0.,12.0
1979-07-04 03:51:03.920 ,4,0,0.,12.0,0.,12.0,0.,12.0,0.,12.0
1979-07-04 03:51:15.920 ,5,1,0.,12.0,0.,12.0,0.,12.0,0.,12.0
1979-07-04 03:51:27.920 ,5,1,0.,12.0,0.,12.0,0.,12.0,0.,12.0
1979-07-04 03:51:39.920 ,5,0,0.,12.0,0.,12.0,0.,12.0,0.,12.0
1979-07-04 03:51:51.920 ,5,0,0.,12.0,0.,12.0,0.,12.0,0.,12.0
1979-07-04 03:52:03.920 ,6,1,0.,12.0,0.,12.0,0.,12.0,0.,12.0
1979-07-04 03:52:15.920 ,6,1,0.,12.0,0.,12.0,0.,12.0,0.,12.0
1979-07-04 03:52:27.920 ,6,0,0.,12.0,0.,12.0,0.,12.0,0.,12.0
1979-07-04 03:52:39.920 ,6,0,0.,12.0,0.,12.0,0.,12.0,0.,12.0
1979-07-04 03:52:51.920 ,7,1,0.,12.0,0.,12.0,0.,12.0,0.,12.0
1979-07-04 03:53:03.920 ,7,1,0.,12.0,0.,12.0,0.,12.0,0.,12.0
1979-07-04 03:53:15.920 ,7,0,0.,12.0,0.,12.0,0.,12.0,0.,12.0
1979-07-04 03:53:27.920 ,7,0,0.,12.0,0.,12.0,0.,12.0,0.,12.0
1979-07-04 03:53:39.920 ,7,1,0.,12.0,0.,12.0,0.,12.0,0.,12.0
1979-07-04 03:53:51.920 ,7,1,0.,12.0,0.,12.0,0.,12.0,0.,12.0
1979-07-04 03:54:03.920 ,7,0,0.,12.0,0.,12.0,0.,12.0,0.,12.0
1979-07-04 03:54:15.920 ,7,0,0.,12.0,0.,12.0,0.,12.0,0.,12.0
1979-07-04 03:54:27.920 ,6,1,0.,12.0,0.,12.0,0.,12.0,0.,12.0
1979-07-04 03:54:39.920 ,6,1,0.,12.0,0.,12.0,0.,12.0,0.,12.0
1979-07-04 03:54:51.920 ,6,0,0.,12.0,0.,12.0,0.,12.0,1.,12.0
1979-07-04 03:55:03.920 ,6,0,0.,12.0,0.,12.0,0.,12.0,0.,12.0
1979-07-04 03:55:15.920 ,5,1,0.,12.0,0.,12.0,0.,12.0,0.,12.0
1979-07-04 03:55:27.920 ,5,1,0.,12.0,0.,12.0,0.,12.0,0.,12.0
1979-07-04 03:55:39.920 ,5,0,0.,12.0,0.,12.0,0.,12.0,0.,12.0
1979-07-04 03:55:51.920 ,5,0,0.,12.0,0.,12.0,0.,12.0,0.,12.0
1979-07-04 03:56:03.920 ,4,1,0.,12.0,0.,12.0,0.,12.0,0.,12.0
1979-07-04 03:56:15.920 ,4,1,0.,12.0,0.,12.0,0.,12.0,0.,12.0
1979-07-04 03:56:27.920 ,4,0,0.,12.0,0.,12.0,0.,12.0,0.,12.0
1979-07-04 03:56:39.920 ,4,0,0.,12.0,0.,12.0,0.,12.0,0.,12.0
1979-07-04 03:56:51.920 ,3,1,0.,12.0,0.,12.0,0.,12.0,0.,12.0
1979-07-04 03:57:03.920 ,3,1,0.,12.0,0.,12.0,0.,12.0,0.,12.0
1979-07-04 03:57:15.920 ,3,0,0.,12.0,0.,12.0,0.,12.0,0.,12.0
1979-07-04 03:57:27.920 ,3,0,0.,12.0,0.,12.0,0.,12.0,0.,12.0
1979-07-04 03:57:39.920 ,2,1,0.,12.0,0.,12.0,0.,12.0,0.,12.0
1979-07-04 03:57:51.920 ,2,1,0.,12.0,0.,12.0,0.,12.0,0.,12.0
1979-07-04 03:58:03.920 ,2,0,0.,12.0,0.,12.0,0.,12.0,0.,12.0
1979-07-04 03:58:15.920 ,2,0,0.,12.0,0.,12.0,0.,12.0,0.,12.0
1979-07-04 03:58:27.920 ,1,1,0.,12.0,0.,12.0,0.,12.0,0.,12.0
1979-07-04 03:58:39.920 ,1,1,0.,12.0,0.,12.0,0.,12.0,0.,12.0
1979-07-04 03:58:51.920 ,1,0,0.,12.0,0.,12.0,0.,12.0,0.,12.0
1979-07-04 03:59:03.920 ,1,0,0.,12.0,0.,12.0,0.,12.0,0.,12.0
1979-07-04 03:59:15.920 ,0,1,0.,12.0,0.,12.0,0.,12.0,0.,12.0
1979-07-04 03:59:27.920 ,0,1,0.,12.0,0.,12.0,0.,12.0,0.,12.0
1979-07-04 03:59:39.920 ,0,0,0.,12.0,0.,12.0,0.,12.0,0.,12.0
1979-07-04 03:59:51.920 ,0,0,0.,12.0,0.,12.0,0.,12.0,0.,12.0
1979-07-04 04:00:03.920 ,0,1,0.,12.0,0.,12.0,0.,12.0,0.,12.0
1979-07-04 04:00:15.920 ,0,1,0.,12.0,0.,12.0,0.,12.0,0.,12.0
1979-07-04 04:00:27.920 ,0,0,0.,12.0,0.,12.0,0.,12.0,0.,12.0
1979-07-04 04:00:39.920 ,0,0,0.,12.0,0.,12.0,0.,12.0,0.,12.0
1979-07-04 04:00:51.920 ,1,1,0.,12.0,0.,12.0,0.,12.0,0.,12.0
1979-07-04 04:01:03.920 ,1,1,0.,12.0,0.,12.0,0.,12.0,0.,12.0
1979-07-04 04:01:15.920 ,1,0,0.,12.0,0.,12.0,0.,12.0,0.,12.0
1979-07-04 04:01:27.920 ,1,0,0.,12.0,0.,12.0,0.,12.0,0.,12.0
1979-07-04 04:01:39.920 ,2,1,0.,12.0,0.,12.0,0.,12.0,0.,12.0
1979-07-04 04:01:51.920 ,2,1,0.,12.0,0.,12.0,0.,12.0,0.,12.0
1979-07-04 04:02:03.920 ,2,0,0.,12.0,0.,12.0,0.,12.0,0.,12.0
1979-07-04 04:02:15.920 ,2,0,0.,12.0,0.,12.0,0.,12.0,0.,12.0
1979-07-04 04:02:27.920 ,3,1,0.,12.0,0.,12.0,0.,12.0,0.,12.0
1979-07-04 04:02:39.920 ,3,1,0.,12.0,0.,12.0,0.,12.0,0.,12.0
1979-07-04 04:02:51.920 ,3,0,0.,12.0,0.,12.0,0.,12.0,0.,12.0
1979-07-04 04:03:03.920 ,3,0,0.,12.0,0.,12.0,0.,12.0,0.,12.0
1979-07-04 04:03:15.920 ,4,1,0.,12.0,0.,12.0,0.,12.0,0.,12.0
1979-07-04 04:03:27.920 ,4,1,0.,12.0,0.,12.0,0.,12.0,0.,12.0
1979-07-04 04:03:39.920 ,4,0,0.,12.0,0.,12.0,0.,12.0,0.,12.0
1979-07-04 04:03:51.920 ,4,0,0.,12.0,0.,12.0,0.,12.0,0.,12.0
1979-07-04 04:04:03.920 ,5,1,0.,12.0,0.,12.0,0.,12.0,0.,12.0
1979-07-04 04:04:15.920 ,5,1,0.,12.0,0.,12.0,0.,12.0,0.,12.0
1979-07-04 04:04:27.920 ,5,0,0.,12.0,0.,12.0,0.,12.0,0.,12.0
1979-07-04 04:04:39.920 ,5,0,0.,12.0,0.,12.0,0.,12.0,0.,12.0
1979-07-04 04:04:51.920 ,6,1,0.,12.0,0.,12.0,0.,12.0,0.,12.0
1979-07-04 04:05:03.920 ,6,1,0.,12.0,0.,12.0,0.,12.0,0.,12.0
1979-07-04 04:05:15.920 ,6,0,0.,12.0,0.,12.0,0.,12.0,0.,12.0
1979-07-04 04:05:27.920 ,6,0,0.,12.0,0.,12.0,0.,12.0,0.,12.0
1979-07-04 04:05:39.920 ,7,1,0.,12.0,0.,12.0,0.,12.0,0.,12.0
1979-07-04 04:05:51.920 ,7,1,0.,12.0,0.,12.0,0.,12.0,0.,12.0
1979-07-04 04:06:03.920 ,7,0,0.,12.0,0.,12.0,0.,12.0,0.,12.0
1979-07-04 04:06:15.920 ,7,0,0.,12.0,0.,12.0,0.,12.0,0.,12.0
1979-07-04 04:06:27.920 ,7,1,0.,12.0,0.,12.0,0.,12.0,0.,12.0
1979-07-04 04:06:39.920 ,7,1,0.,12.0,0.,12.0,0.,12.0,0.,12.0
1979-07-04 04:06:51.920 ,7,0,0.,12.0,0.,12.0,0.,12.0,0.,12.0
1979-07-04 04:07:03.920 ,7,0,0.,12.0,0.,12.0,0.,12.0,0.,12.0
1979-07-04 04:07:15.920 ,6,1,0.,12.0,0.,12.0,0.,12.0,0.,12.0
1979-07-04 04:07:27.920 ,6,1,0.,12.0,0.,12.0,0.,12.0,0.,12.0
1979-07-04 04:07:39.920 ,6,0,0.,12.0,0.,12.0,0.,12.0,0.,12.0
1979-07-04 04:07:51.920 ,6,0,0.,12.0,0.,12.0,0.,12.0,0.,12.0
1979-07-04 04:08:03.920 ,5,1,0.,12.0,0.,12.0,0.,12.0,0.,12.0
1979-07-04 04:08:15.920 ,5,1,0.,12.0,0.,12.0,0.,12.0,0.,12.0
1979-07-04 04:08:27.920 ,5,0,0.,12.0,0.,12.0,0.,12.0,0.,12.0
1979-07-04 04:08:39.920 ,5,0,0.,12.0,0.,12.0,0.,12.0,0.,12.0
1979-07-04 04:08:51.920 ,4,1,0.,12.0,0.,12.0,0.,12.0,0.,12.0
1979-07-04 04:09:03.920 ,4,1,0.,12.0,0.,12.0,0.,12.0,0.,12.0
1979-07-04 04:09:15.920 ,4,0,0.,12.0,0.,12.0,0.,12.0,0.,12.0
1979-07-04 04:09:27.920 ,4,0,0.,12.0,0.,12.0,0.,12.0,0.,12.0
1979-07-04 04:09:39.920 ,3,1,0.,12.0,0.,12.0,0.,12.0,0.,12.0
1979-07-04 04:09:51.920 ,3,1,0.,12.0,0.,12.0,0.,12.0,0.,12.0
1979-07-04 04:10:03.920 ,3,0,0.,12.0,0.,12.0,0.,12.0,0.,12.0
1979-07-04 04:10:15.920 ,3,0,0.,12.0,0.,12.0,0.,12.0,0.,12.0
1979-07-04 04:10:27.920 ,2,1,0.,12.0,0.,12.0,0.,12.0,0.,12.0
1979-07-04 04:10:39.920 ,2,1,0.,12.0,0.,12.0,0.,12.0,0.,12.0
1979-07-04 04:10:51.920 ,2,0,0.,12.0,0.,12.0,0.,12.0,0.,12.0
1979-07-04 04:11:03.920 ,2,0,0.,12.0,0.,12.0,0.,12.0,0.,12.0
1979-07-04 04:11:15.920 ,1,1,0.,12.0,0.,12.0,0.,12.0,0.,12.0
1979-07-04 04:11:27.920 ,1,1,0.,12.0,0.,12.0,0.,12.0,0.,12.0
1979-07-04 04:11:39.920 ,1,0,0.,12.0,0.,12.0,0.,12.0,0.,12.0
1979-07-04 04:11:51.920 ,1,0,0.,12.0,0.,12.0,0.,12.0,0.,12.0
1979-07-04 04:12:03.920 ,0,1,0.,12.0,0.,12.0,0.,12.0,0.,12.0
1979-07-04 04:12:15.920 ,0,1,0.,12.0,0.,12.0,0.,12.0,0.,12.0
1979-07-04 04:12:27.920 ,0,0,0.,12.0,0.,12.0,0.,12.0,0.,12.0
1979-07-04 04:12:39.920 ,0,0,0.,12.0,0.,12.0,0.,12.0,0.,12.0
1979-07-04 04:12:51.920 ,0,1,0.,12.0,0.,12.0,0.,12.0,0.,12.0
1979-07-04 04:13:03.920 ,0,1,0.,12.0,0.,12.0,0.,12.0,0.,12.0
1979-07-04 04:13:15.920 ,0,0,0.,12.0,0.,12.0,0.,12.0,0.,12.0
1979-07-04 04:13:27.920 ,0,0,0.,12.0,0.,12.0,0.,12.0,0.,12.0
1979-07-04 04:13:39.920 ,1,1,0.,12.0,0.,12.0,0.,12.0,0.,12.0
1979-07-04 04:13:51.920 ,1,1,0.,12.0,0.,12.0,0.,12.0,0.,12.0
1979-07-04 04:14:03.920 ,1,0,0.,12.0,0.,12.0,0.,12.0,0.,12.0
1979-07-04 04:14:15.920 ,1,0,0.,12.0,0.,12.0,0.,12.0,0.,12.0
1979-07-04 04:14:27.920 ,2,1,0.,12.0,0.,12.0,0.,12.0,0.,12.0
1979-07-04 04:14:39.920 ,2,1,0.,12.0,0.,12.0,0.,12.0,0.,12.0
1979-07-04 04:14:51.920 ,2,0,0.,12.0,0.,12.0,0.,12.0,0.,12.0
1979-07-04 04:15:03.920 ,2,0,0.,12.0,0.,12.0,0.,12.0,0.,12.0
1979-07-04 04:15:15.920 ,3,1,0.,12.0,0.,12.0,0.,12.0,0.,12.0
1979-07-04 04:15:27.920 ,3,1,0.,12.0,0.,12.0,0.,12.0,0.,12.0
1979-07-04 04:15:39.920 ,3,0,0.,12.0,0.,12.0,0.,12.0,0.,12.0
1979-07-04 04:15:51.920 ,3,0,0.,12.0,0.,12.0,0.,12.0,0.,12.0
1979-07-04 04:16:03.920 ,4,1,0.,12.0,0.,12.0,0.,12.0,0.,12.0
1979-07-04 04:16:15.920 ,4,1,0.,12.0,0.,12.0,0.,12.0,0.,12.0
1979-07-04 04:16:27.920 ,4,0,0.,12.0,0.,12.0,0.,12.0,0.,12.0
1979-07-04 04:16:39.920 ,4,0,0.,12.0,0.,12.0,0.,12.0,0.,12.0
1979-07-04 04:16:51.920 ,5,1,0.,12.0,0.,12.0,0.,12.0,0.,12.0
1979-07-04 04:17:03.920 ,5,1,0.,12.0,0.,12.0,0.,12.0,0.,12.0
1979-07-04 04:17:15.920 ,5,0,0.,12.0,0.,12.0,0.,12.0,0.,12.0
1979-07-04 04:17:27.920 ,5,0,0.,12.0,0.,12.0,0.,12.0,0.,12.0
1979-07-04 04:17:39.920 ,6,1,0.,12.0,0.,12.0,0.,12.0,0.,12.0
1979-07-04 04:17:51.920 ,6,1,0.,12.0,0.,12.0,0.,12.0,0.,12.0
1979-07-04 04:18:03.920 ,6,0,0.,12.0,0.,12.0,0.,12.0,0.,12.0
1979-07-04 04:18:15.920 ,6,0,0.,12.0,0.,12.0,0.,12.0,0.,12.0